Location: Lane
(33.5226°N, 79.8788°W)
Time: 21:17:16
(UTC+00:00)

Vanguard 2 Rocket - Pass Details

Date: 06 October 2022
Orbit: 555 x 3321 km, 32.9° (Epoch: 28 November)

Event Time Altitude Azimuth Distance (km) Brightness Sun altitude
Rises 00:36:47 0° 217° (SW) 7,252 11.9 -21.3°
Reaches altitude 10° 00:42:09 10° 211° (SSW) 6,271 11.4 -22.4°
Maximum altitude 00:59:55 41° 149° (SSE) 3,754 9.6 -26.0°
Enters shadow 01:04:28 36° 119° (ESE) 3,724 9.4 -27.0°
